Home > Weather > Zaragoza > Past weeks

Flag for Spain Past Weather in Zaragoza, Spain — Yesterday and Last 2 Weeks

Now
86 °F

Passing clouds.


Feels Like: 84 °F
Forecast: 69 / 98 °F
Wind: 12 mph from Southeast

Location: Zaragoza / Aeropuerto

Current Time: Aug 26, 2016 at 10:11:33 PM

Latest Report: Aug 26, 2016 at 9:30 PM


Visibility: N/A

Pressure: 30.01 "Hg

Humidity: 33%

Dew Point: 54 °F

Location of ZaragozaLocation

Past Weather in Zaragoza — Graph

°F

Zaragoza Temperature Yesterday

Maximum temperature yesterday: 97 °F (at 4:00 PM)
Minimum temperature yesterday: 66 °F (at 6:30 AM)
Average temperature yesterday: 82 °F

High & Low Weather Summary for the Past Weeks

 TemperatureHumidityPressure
High97 °F (Aug 15, 5:00 PM)88% (Aug 16, 5:30 AM)30.33 "Hg (Aug 16, 5:30 AM)
Low57 °F (Aug 12, 7:00 AM)12% (Aug 24, 5:30 PM)29.77 "Hg (Aug 19, 5:30 PM)
Average79 °F46%30.06 "Hg
* Reported Aug 11 9:00 PM — Aug 26 9:00 PM, Zaragoza, Weather by CustomWeather, © 2016

Note: Actual official high and low records may vary slightly from our data, if they occured in-between our weather recording intervals... More about our weather records

Advertising

Zaragoza Weather History for the Previous 24 Hours

Scroll right to see more
 ConditionsComfort  
Time TempWeatherWind HumidityBarometerVisibility
9:00 PM
Fri, Aug 26
88 °FPassing clouds.15 mph29%29.98 "HgN/A
8:30 PM90 °FPassing clouds.14 mph24%29.98 "HgN/A
8:00 PM91 °FPassing clouds.13 mph21%29.95 "HgN/A
7:30 PM93 °FPassing clouds.14 mph20%29.95 "HgN/A
7:00 PM93 °FPassing clouds.14 mph20%29.95 "HgN/A
6:30 PM95 °FPassing clouds.13 mph18%29.95 "HgN/A
6:00 PM95 °FPassing clouds.13 mph19%29.95 "HgN/A
5:30 PM95 °FPassing clouds.13 mph19%29.98 "HgN/A
5:00 PM95 °FPassing clouds.14 mph19%29.98 "HgN/A
4:30 PM95 °FPassing clouds.12 mph19%29.98 "HgN/A
4:00 PM93 °FPassing clouds.10 mph21%30.01 "HgN/A
3:30 PM91 °FPassing clouds.12 mph21%30.01 "HgN/A
3:00 PM91 °FPassing clouds.9 mph23%30.04 "HgN/A
2:30 PM90 °FPassing clouds.9 mph24%30.04 "HgN/A
2:00 PM88 °FPassing clouds.10 mph25%30.04 "HgN/A
1:30 PM88 °FPassing clouds.10 mph29%30.04 "HgN/A
1:00 PM84 °FPassing clouds.13 mph35%30.07 "HgN/A
12:30 PM82 °FPassing clouds.10 mph40%30.07 "HgN/A
12:00 PM81 °FSunny.14 mph42%30.07 "Hg10 mi
11:30 AM79 °FPassing clouds.9 mph51%30.07 "HgN/A
11:00 AM77 °FPassing clouds.8 mph57%30.07 "HgN/A
10:30 AM75 °FPassing clouds.7 mph61%30.07 "HgN/A
10:00 AM73 °FPassing clouds.10 mph65%30.07 "HgN/A
9:30 AM73 °FSunny.8 mph61%30.07 "Hg10 mi
9:00 AM72 °FPassing clouds.6 mph65%30.07 "HgN/A
8:30 AM70 °FSunny.5 mph60%30.07 "Hg10 mi
8:00 AM68 °FClear.7 mph64%30.04 "Hg10 mi
7:30 AM70 °FPassing clouds.7 mph64%30.04 "HgN/A
7:00 AM68 °FPassing clouds.5 mph69%30.04 "HgN/A
6:30 AM70 °FClear.7 mph60%30.04 "Hg10 mi
6:00 AM72 °FClear.9 mph57%30.04 "Hg10 mi
5:30 AM73 °FClear.12 mph50%30.04 "Hg10 mi
5:00 AM73 °FClear.8 mph50%30.04 "Hg10 mi
4:30 AM73 °FClear.7 mph47%30.04 "Hg10 mi
4:00 AM73 °FClear.6 mph44%30.01 "Hg10 mi
3:30 AM73 °FClear.6 mph44%30.01 "Hg10 mi
3:00 AM75 °FClear.7 mph41%30.01 "Hg10 mi
2:30 AM75 °FClear.8 mph41%30.01 "Hg10 mi
2:00 AM75 °FClear.9 mph41%30.01 "Hg10 mi
1:30 AM75 °FClear.9 mph41%30.01 "Hg10 mi
1:00 AM77 °FClear.9 mph39%30.01 "Hg10 mi
12:30 AM77 °FClear.10 mph42%30.01 "Hg10 mi
12:00 AM79 °FClear.9 mph39%30.01 "Hg10 mi
11:30 PM
Thu, Aug 25
81 °FClear.10 mph34%30.01 "Hg10 mi
11:00 PM81 °FClear.9 mph34%29.98 "Hg10 mi
10:30 PM84 °FClear.14 mph31%29.98 "Hg10 mi
10:00 PM86 °FClear.15 mph27%29.98 "Hg10 mi
Weather by CustomWeather, © 2016

See weather overviewHow to use our weather pages